Location: Владивосток
(43.1151°N, 131.8856°E)
Time: 18:10:45
(UTC+10:00)

SPROUT - Pass Details

Date: 08 July 2022
Orbit: 588 x 598 km, 97.9° (Epoch: 17 August)

Event Time Altitude Azimuth Distance (km) Brightness Sun altitude
Exits shadow 03:22:30 12° 277° (W) 1,784 ? -18.3°
Drops below altitude 10° 03:23:43 10° 294° (WNW) 1,915 ? -18.2°
Sets 03:27:13 0° 325° (NW) 2,832 ? -17.9°
